Home   Weather   Topeka   Past weeks
Flag for USA

Past Weather in Topeka, Kansas, USA — Yesterday and Last 2 Weeks

Now
52 °F

Clear.


Feels Like: 52 °F
Forecast: 72 / 54 °F
Wind: 3 mph from Northwest

Location: Philip Billard Municipal Airport

Current Time: May 23, 2019 at 4:02:30 am

Latest Report: May 23, 2019 at 2:53 am


Visibility: 10 mi

Pressure: 29.98 "Hg

Humidity: 89%

Dew Point: 49 °F

Location of TopekaLocation

Past Weather in Topeka — Graph

°F

Topeka Temperature Yesterday

Maximum temperature yesterday: 75 °F (at 4:53 pm)
Minimum temperature yesterday: 52 °F (at 6:53 am)
Average temperature yesterday: 63 °F

High & Low Weather Summary for the Past Weeks

 TemperatureHumidityPressure
High91 °F (May 16, 1:53 pm)96% (May 10, 6:53 am)30.24 "Hg (May 10, 6:53 am)
Low39 °F (May 10, 5:53 am)31% (May 16, 3:53 pm)29.34 "Hg (May 21, 5:53 pm)
Average61 °F73%29.82 "Hg
* Reported May 8 2:20 am — May 23 2:53 am, Topeka. Weather by CustomWeather, © 2019

Note: Actual official high and low records may vary slightly from our data, if they occured in-between our weather recording intervals... More about our weather records

Advertising

Topeka Weather History for the Previous 24 Hours

Scroll right to see more
 ConditionsComfort  
Time TempWeatherWind HumidityBarometerVisibility
2:53 am
Thu, May 23
52 °FClear.3 mph89%29.98 "Hg10 mi
1:53 am53 °FClear.6 mph89%29.97 "Hg10 mi
12:53 am55 °FClear.No wind83%29.95 "Hg10 mi
11:53 pm
Wed, May 22
56 °FClear.6 mph81%29.93 "Hg10 mi
10:53 pm61 °FClear.3 mph65%29.90 "Hg10 mi
9:53 pm63 °FClear.7 mph63%29.87 "Hg10 mi
8:53 pm63 °FClear.6 mph73%29.84 "Hg10 mi
7:53 pm71 °FPassing clouds.No wind51%29.81 "Hg10 mi
6:53 pm73 °FSunny.7 mph46%29.78 "Hg10 mi
5:53 pm74 °FSunny.8 mph43%29.78 "Hg10 mi
4:53 pm75 °FSunny.9 mph45%29.77 "Hg10 mi
3:53 pm73 °FPartly sunny.9 mph44%29.78 "Hg10 mi
2:53 pm72 °FPartly sunny.8 mph44%29.76 "Hg10 mi
1:53 pm70 °FSunny.14 mph41%29.75 "Hg10 mi
12:53 pm68 °FSunny.13 mph49%29.75 "Hg10 mi
11:53 am65 °FSunny.10 mph51%29.74 "Hg10 mi
10:53 am62 °FSunny.12 mph52%29.73 "Hg10 mi
9:53 am59 °FSunny.7 mph58%29.71 "Hg10 mi
8:53 am56 °FSunny.12 mph65%29.69 "Hg10 mi
7:53 am54 °FSunny.8 mph69%29.67 "Hg10 mi
6:53 am52 °FSunny.9 mph72%29.62 "Hg10 mi
5:53 am53 °FClear.7 mph72%29.60 "Hg10 mi
4:53 am54 °FClear.7 mph74%29.57 "Hg10 mi
Weather by CustomWeather, © 2019

See weather overview